Probability
0 0 0 0 0 0 0 0 0 3 6 13 19 39 29 29 45 52 42 42 35 32 26 19 23 26 39 52 58 58 58 48 55 52 35 32 29 26 19 26 26 19 16 16
0 0 0 0 0 0 0 0 0 3 6 13 16 32 29 35 32 35 35 39 29 26 26 23 26 29 35 45 42 45 42 39 45 48 42 42 19 16 23 23 23 10 10 13
0 0 0 0 0 0 0 0 3 3 6 3 10 19 19 29 32 29 32 32 32 32 29 26 29 29 26 29 32 32 35 32 32 26 29 26 26 29 19 10 13 13 10 6
0 0 0 0 0 0 0 0 0 0 3 3 10 0 16 26 29 35 29 26 29 29 26 29 26 23 19 23 23 29 29 26 26 16 19 16 6 3 6 10 13 10 3 3
0 0 0 0 0 0 0 0 0 0 0 0 0 0 13 29 23 32 26 26 29 23 23 29 29 29 19 16 23 19 26 16 13 13 10 6 10 6 6 3 3 0 3 3
0 0 0 0 0 0 0 0 0 0 0 0 0 0 10 19 23 29 23 16 26 26 23 23 19 23 16 13 10 10 16 16 10 6 6 10 10 10 6 6 3 0 0 3
0 0 0 0 0 0 0 0 3 0 0 0 0 0 10 6 16 19 26 13 16 16 13 13 16 13 10 6 6 6 10 6 6 6 6 6 6 6 6 3 0 0 0 0
0 0 0 0 0 0 0 0 0 0 0 0 0 0 10 10 6 16 16 13 13 6 0 0 6 10 10 10 3 3 6 3 3 3 3 3 3 3 0 0 0 0 0 0
0 0 0 0 0 0 0 0 0 0 0 0 0 6 6 0 0 3 6 10 6 3 0 0 3 6 10 3 3 3 6 3 3 3 3 3 0 0 0 0 0 0 0 0
0 0 0 0 0 0 0 0 0 0 0 0 0 0 10 3 0 3 0 6 3 3 0 0 0 0 3 3 6 6 6 3 3 3 0 0 0 0 0 0 0 0 0 0
0 0 0 0 0 0 0 0 0 0 0 0 0 0 0 3 3 3 0 3 3 3 0 0 0 0 0 3 3 3 3 0 0 0 0 0 0 0 0 0 0 0 0 0
0 0 0 0 0 0 0 0 0 0 0 0 0 0 0 0 0 0 0 0 3 3 0 0 0 0 3 3 3 3 0 0 0 0 0 0 0 0 0 0 0 0 0 0
0 0 0 0 3 0 0 0 0 0 3 0 0 0 0 0 0 0 3 3 3 3 0 0 0 3 3 3 3 0 0 0 0 0 0 0 0 0 0 0 0 0 0 0
0 0 0 0 0 0 0 0 0 0 0 0 0 0 0 0 0 0 0 3 3 0 0 0 3 3 3 3 0 0 0 0 0 0 0 0 0 0 0 0 0 0 0 0
0 0 0 0 0 0 0 0 0 0 0 0 0 0 0 0 0 0 0 3 0 0 0 3 6 6 3 0 0 0 0 0 0 0 0 3 0 0 0 0 0 0 0 0
0 0 0 0 0 0 0 0 0 0 0 0 0 0 0 3 0 0 0 0 0 0 0 0 3 6 0 0 0 0 0 0 0 0 0 0 0 0 0 0 0 0 0 0
0 10 3 0 0 0 0 0 0 0 0 0 0 0 0 0 0 0 0 0 0 0 0 0 3 3 3 0 0 0 0 0 0 0 0 0 0 0 0 0 0 0 0 0
10 29 48 6 3 0 0 0 0 0 0 0 0 0 0 0 0 0 0 0 0 0 0 0 0 3 3 0 0 0 0 0 0 0 0 0 0 0 0 0 0 0 3 3
6 23 10 6 0 0 0 0 0 0 0 0 0 0 0 0 0 0 0 0 0 3 3 3 0 0 3 0 0 0 0 0 0 0 0 0 0 0 0 0 0 3 0 0
3 35 13 6 3 0 0 0 0 0 0 0 0 0 0 0 0 0 0 0 0 3 3 3 0 0 3 3 0 0 0 0 0 0 0 0 0 0 0 0 0 0 3 0
6 23 6 6 6 0 0 0 0 0 0 0 0 0 0 0 0 0 0 0 0 3 3 3 3 0 3 3 3 0 0 0 0 0 0 3 3 3 0 3 3 6 3 0
10 10 39 16 6 0 0 0 3 29 19 0 0 0 0 0 0 0 0 0 0 0 0 0 3 3 3 3 3 3 0 0 0 0 3 0 3 0 0 6 3 3 0 0
10 35 26 23 10 39 6 10 13 6 6 3 3 0 0 0 0 0 0 0 0 0 0 0 0 3 3 3 3 0 3 3 0 3 3 3 0 3 0 3 3 3 0 0
3 16 16 19 16 13 6 3 3 3 6 3 3 3 0 0 0 0 0 0 0 0 0 0 0 0 0 0 0 3 3 3 0 0 3 0 3 3 3 6 3 0 0 0
0 0 3 29 23 6 13 6 0 0 0 0 0 0 0 0 0 0 0 0 0 0 0 0 0 0 0 0 0 0 0 0 0 0 0 0 0 0 3 3 3 0 0 0
3 23 19 29 52 10 29 3 0 0 0 0 0 0 0 0 0 0 0 0 0 0 0 0 0 0 0 0 0 0 0 0 3 3 0 0 0 0 0 0 0 0 0 0
Height
5882 5881 5880 5881 5879 5878 5877 5875 5873 5871 5868 5867 5865 5864 5862 5862 5861 5860 5859 5858 5859 5858 5857 5856 5855 5854 5852 5851 5849 5847 5845 5844 5842 5841 5839 5838 5836 5835 5834 5833 5832 5831 5831 5830
5881 5881 5880 5880 5879 5877 5875 5874 5873 5870 5868 5867 5865 5862 5861 5860 5860 5858 5857 5856 5856 5856 5855 5854 5852 5850 5849 5847 5845 5843 5841 5840 5838 5836 5835 5833 5831 5830 5829 5828 5827 5826 5825 5824
5882 5882 5880 5879 5877 5876 5874 5873 5871 5869 5867 5865 5864 5861 5858 5856 5858 5857 5855 5855 5855 5854 5853 5851 5850 5848 5846 5843 5842 5840 5837 5835 5834 5832 5830 5829 5827 5825 5824 5823 5821 5820 5819 5818
5880 5880 5878 5877 5876 5874 5873 5872 5870 5868 5867 5864 5862 5859 5857 5857 5856 5856 5854 5854 5853 5852 5851 5849 5847 5845 5843 5841 5839 5837 5834 5832 5830 5828 5826 5824 5822 5820 5819 5817 5816 5815 5813 5812
5878 5878 5876 5875 5875 5873 5872 5870 5868 5866 5864 5860 5858 5858 5859 5856 5856 5856 5855 5854 5852 5851 5850 5847 5845 5842 5840 5838 5836 5834 5831 5829 5826 5824 5822 5819 5817 5815 5813 5812 5810 5809 5808 5806
5876 5876 5875 5874 5873 5871 5870 5869 5867 5864 5861 5858 5858 5859 5858 5856 5856 5856 5854 5853 5852 5850 5848 5846 5844 5841 5839 5836 5833 5831 5828 5826 5823 5820 5818 5815 5813 5811 5809 5807 5805 5803 5802 5800
5874 5872 5872 5872 5871 5871 5870 5869 5867 5863 5860 5860 5860 5861 5859 5857 5857 5856 5854 5853 5852 5850 5847 5845 5843 5840 5837 5834 5831 5829 5826 5823 5820 5817 5814 5812 5809 5806 5804 5802 5799 5797 5795 5793
5873 5872 5871 5870 5870 5869 5869 5868 5868 5865 5864 5862 5860 5860 5860 5858 5857 5856 5854 5853 5851 5849 5846 5844 5841 5838 5836 5832 5829 5826 5823 5820 5817 5814 5811 5808 5805 5802 5799 5797 5794 5792 5789 5787
5872 5871 5870 5869 5868 5869 5868 5867 5867 5865 5863 5861 5859 5858 5858 5858 5857 5856 5854 5852 5850 5848 5845 5843 5840 5837 5834 5831 5827 5824 5821 5817 5814 5811 5807 5804 5801 5798 5795 5792 5789 5786 5783 5781
5870 5870 5869 5868 5867 5868 5867 5867 5867 5866 5864 5862 5860 5858 5856 5856 5855 5855 5853 5851 5849 5847 5844 5841 5838 5835 5832 5829 5826 5822 5819 5815 5811 5808 5804 5801 5797 5794 5790 5787 5784 5780 5777 5774
5868 5868 5869 5868 5866 5866 5865 5865 5864 5865 5864 5864 5861 5860 5857 5857 5856 5854 5852 5850 5847 5845 5842 5839 5836 5833 5830 5827 5823 5820 5816 5812 5808 5805 5801 5797 5793 5790 5786 5782 5779 5775 5772 5768
5865 5866 5865 5865 5864 5863 5862 5863 5863 5863 5863 5863 5862 5860 5856 5856 5855 5853 5850 5848 5846 5843 5841 5838 5835 5832 5828 5825 5821 5817 5813 5809 5805 5802 5798 5794 5790 5785 5781 5777 5773 5770 5766 5762
5861 5862 5862 5861 5862 5860 5859 5860 5861 5861 5861 5861 5861 5859 5855 5854 5853 5851 5849 5847 5845 5842 5839 5836 5833 5830 5826 5823 5819 5815 5811 5807 5803 5798 5794 5790 5785 5781 5777 5772 5768 5764 5760 5756
5858 5859 5860 5859 5857 5856 5857 5858 5858 5859 5859 5859 5857 5854 5852 5851 5850 5849 5847 5845 5843 5841 5838 5835 5832 5828 5825 5821 5817 5813 5808 5804 5800 5795 5791 5786 5782 5777 5772 5768 5763 5759 5754 5750
5855 5855 5855 5856 5856 5855 5856 5856 5856 5857 5857 5857 5855 5853 5850 5849 5848 5847 5845 5843 5841 5838 5836 5833 5830 5826 5823 5819 5815 5811 5806 5802 5797 5793 5788 5783 5778 5773 5768 5763 5758 5754 5749 5744
5851 5852 5852 5853 5854 5854 5855 5855 5855 5855 5855 5855 5853 5851 5848 5847 5846 5845 5843 5841 5839 5836 5834 5831 5828 5824 5821 5817 5812 5808 5804 5799 5794 5790 5785 5780 5775 5769 5764 5759 5754 5749 5743 5738
5847 5848 5849 5849 5851 5852 5852 5852 5852 5852 5851 5851 5850 5848 5845 5845 5843 5842 5840 5838 5836 5834 5831 5828 5825 5822 5818 5814 5810 5805 5801 5796 5792 5787 5782 5777 5771 5766 5760 5755 5749 5744 5738 5733
5844 5844 5846 5846 5848 5848 5850 5849 5848 5848 5847 5846 5845 5844 5843 5841 5840 5839 5837 5835 5833 5831 5828 5826 5823 5819 5816 5812 5807 5803 5798 5794 5789 5784 5779 5774 5768 5763 5757 5751 5746 5740 5734 5728
5840 5841 5842 5843 5844 5844 5845 5844 5844 5844 5844 5843 5841 5840 5839 5838 5836 5836 5834 5832 5830 5828 5825 5823 5820 5816 5813 5809 5805 5800 5796 5791 5786 5781 5776 5770 5765 5759 5754 5748 5742 5736 5730 5724
5836 5837 5839 5839 5840 5840 5840 5839 5839 5841 5839 5838 5837 5837 5835 5834 5833 5833 5831 5829 5827 5825 5822 5820 5817 5813 5810 5806 5802 5798 5793 5788 5783 5778 5773 5767 5762 5756 5750 5745 5739 5732 5726 5720
5831 5833 5834 5835 5836 5837 5835 5835 5837 5838 5837 5835 5833 5833 5832 5831 5830 5829 5827 5825 5823 5821 5819 5816 5813 5810 5807 5803 5799 5795 5790 5785 5780 5775 5770 5764 5759 5753 5747 5741 5735 5729 5722 5716
5827 5829 5830 5831 5831 5834 5832 5831 5832 5831 5832 5831 5830 5829 5828 5827 5826 5825 5823 5822 5820 5818 5815 5813 5810 5807 5803 5800 5796 5792 5787 5782 5777 5772 5767 5761 5756 5750 5744 5738 5731 5725 5719 5712
5825 5826 5824 5824 5826 5824 5825 5825 5825 5826 5826 5826 5826 5825 5824 5823 5822 5820 5819 5817 5815 5813 5811 5809 5806 5803 5799 5796 5792 5788 5784 5779 5774 5769 5764 5758 5752 5746 5740 5734 5728 5722 5715 5709
5819 5819 5818 5818 5818 5818 5820 5820 5820 5821 5822 5821 5821 5820 5819 5818 5817 5816 5814 5813 5811 5809 5807 5804 5801 5798 5795 5792 5788 5784 5780 5775 5770 5765 5760 5754 5749 5743 5737 5730 5724 5718 5711 5705
5812 5812 5814 5813 5814 5815 5816 5816 5816 5816 5816 5815 5816 5815 5814 5813 5812 5811 5809 5808 5806 5804 5802 5799 5796 5793 5790 5787 5783 5779 5775 5771 5766 5761 5756 5750 5745 5739 5733 5727 5720 5714 5707 5701
5808 5809 5809 5809 5811 5812 5811 5812 5812 5811 5810 5810 5810 5810 5809 5808 5807 5805 5804 5802 5800 5798 5796 5794 5791 5788 5785 5782 5778 5774 5770 5766 5761 5756 5751 5746 5740 5734 5729 5722 5716 5710 5704 5698
Wind_Speed
9 10 10 11 12 11 9 9 10 12 13 11 10 10 10 10 10 10 9 9 12 13 13 14 16 17 18 18 18 19 20 18 18 18 19 21 22 22 22 22 22 23 24 24
13 12 11 10 9 9 9 8 9 9 10 11 11 10 9 9 10 10 9 10 10 11 12 14 15 15 17 17 17 18 18 18 18 19 20 20 21 21 21 22 22 23 24 24
10 11 12 11 9 10 9 8 9 9 9 10 10 9 8 7 9 9 9 9 10 11 12 13 14 15 16 16 17 17 17 17 18 20 20 21 21 21 21 21 22 22 23 24
9 10 12 11 10 9 8 7 8 9 11 11 10 11 10 10 8 9 9 10 10 11 13 14 15 16 16 16 17 17 17 18 19 20 20 20 20 21 21 21 21 21 22 22
8 10 11 10 10 9 8 7 6 7 10 11 9 10 11 10 11 10 10 10 11 12 14 15 16 17 17 18 18 18 18 19 19 19 20 20 20 21 21 21 21 22 22 23
8 9 9 9 9 8 6 6 7 8 10 10 9 11 12 12 12 12 11 12 12 14 15 16 17 18 18 19 19 19 19 19 20 20 20 21 21 21 21 22 22 23 23 24
10 9 9 9 8 7 7 7 9 12 12 11 11 10 11 11 12 13 13 13 14 14 16 17 18 18 19 19 19 19 20 20 21 21 21 21 21 21 22 23 23 24 24 25
9 11 11 11 9 7 6 6 8 9 10 10 9 11 12 11 12 12 13 14 15 15 16 18 18 18 18 19 20 20 21 21 21 21 22 22 21 22 22 22 23 24 24 25
8 11 11 11 9 7 6 5 5 8 8 7 6 13 11 12 12 12 13 14 15 16 17 18 19 19 19 19 20 21 22 22 22 22 22 22 22 22 23 23 23 23 24 24
9 10 10 10 9 8 6 5 4 6 8 10 8 12 15 15 14 15 15 15 16 17 18 18 18 19 19 20 21 21 22 22 22 22 22 22 22 22 23 23 24 23 24 25
12 11 11 10 10 8 8 7 5 4 5 6 10 14 16 16 15 16 17 17 17 18 18 19 19 20 20 20 21 22 22 22 23 23 23 23 23 23 24 24 24 24 25 25
13 12 12 11 12 11 9 7 6 6 5 4 9 17 16 16 16 16 16 17 17 18 18 19 19 20 21 22 22 23 23 23 23 24 23 24 24 24 25 25 25 25 26 26
13 13 13 13 14 11 9 8 7 6 5 4 9 17 17 16 15 15 15 16 16 17 18 19 20 20 21 22 23 23 24 24 24 24 24 24 25 25 26 26 26 26 27 27
13 13 13 13 13 9 7 7 7 7 6 7 10 16 17 16 16 16 15 16 16 17 17 18 19 20 21 22 23 24 24 24 25 25 25 25 25 26 27 27 27 27 27 27
14 14 14 13 11 9 9 8 9 10 9 10 12 15 17 16 17 16 16 16 17 17 17 18 19 20 21 22 23 24 24 24 25 26 26 26 27 27 28 28 28 28 28 28
14 14 13 12 10 10 11 11 10 11 11 11 13 16 17 16 17 16 16 16 17 17 17 18 19 20 21 23 24 24 24 25 25 26 27 28 28 28 29 29 29 29 29 29
15 14 12 11 10 11 11 12 12 12 12 12 14 17 17 17 16 16 16 16 17 17 18 18 19 20 22 23 24 25 25 26 26 27 28 28 29 29 30 30 29 30 30 30
15 14 12 10 10 10 10 13 13 13 13 14 16 17 17 17 16 16 16 16 17 17 18 18 19 20 22 23 24 25 25 26 27 27 28 29 29 29 30 30 30 30 30 30
15 13 12 12 11 11 12 14 13 14 14 15 15 15 16 16 16 15 15 16 17 17 18 19 20 21 22 23 24 25 26 27 27 28 28 29 29 30 30 31 31 31 31 31
14 13 14 14 14 14 15 14 13 14 16 16 15 15 16 16 16 15 15 16 17 17 18 19 19 21 22 23 24 25 25 26 28 28 29 29 30 30 31 31 32 31 31 31
15 14 14 14 13 14 16 15 15 15 17 17 17 16 17 17 17 17 17 17 18 18 18 19 20 21 22 23 24 25 25 26 28 28 29 30 30 31 31 32 32 32 32 32
14 15 16 16 15 19 20 19 18 17 16 17 18 18 17 17 17 17 17 18 18 18 19 20 20 21 22 23 24 25 25 26 27 28 29 30 31 32 32 32 32 32 32 32
16 18 20 20 21 20 20 20 20 18 18 18 18 19 18 18 18 18 18 18 19 19 20 20 21 22 23 23 24 25 25 26 28 29 30 31 31 32 32 33 32 32 32 32
21 21 22 21 20 19 20 20 19 19 19 19 19 20 20 19 19 19 19 19 19 20 20 21 22 22 23 24 24 25 26 27 28 29 30 31 32 32 33 34 33 33 33 33
22 20 20 20 19 20 21 21 22 22 20 19 20 21 20 20 20 20 20 20 20 21 21 22 22 23 24 25 26 26 27 28 29 30 31 32 33 34 34 34 34 34 34 33
24 22 23 23 22 22 23 24 24 23 22 21 21 21 21 21 21 21 21 21 21 22 22 22 23 24 25 26 27 28 29 30 30 31 32 33 34 35 35 34 35 35 33 33
Wind_Direction
338 341 344 326 316 314 311 298 295 299 308 319 326 328 333 328 314 303 294 292 297 299 298 301 300 299 301 302 301 300 298 298 296 297 297 295 294 292 291 289 287 285 283 282
326 324 322 312 310 313 298 293 296 297 311 316 318 323 323 324 320 315 306 306 311 305 305 306 306 309 310 307 307 309 303 303 303 303 302 300 298 296 293 291 290 287 285 283
304 305 307 308 304 302 300 302 302 303 305 312 310 321 327 334 330 326 321 322 318 318 320 320 319 318 319 317 317 317 313 309 308 306 304 302 300 298 296 294 291 289 287 285
288 293 300 302 300 302 309 311 312 309 304 299 312 323 330 343 351 346 340 335 330 331 331 330 330 329 329 329 329 327 323 318 315 313 311 307 305 303 302 299 296 292 289 287
305 308 305 302 302 301 305 309 301 296 285 295 323 336 343 349 355 349 345 346 345 341 340 341 342 341 338 336 333 331 328 325 322 320 317 314 311 307 304 302 299 297 294 292
282 293 302 304 302 299 297 296 294 300 303 326 351 344 339 352 352 350 350 349 348 346 344 344 343 341 338 337 336 335 332 330 327 324 321 317 314 311 308 305 302 300 297 294
297 293 300 309 307 308 304 304 319 336 344 355 359 342 343 351 353 350 349 348 346 344 343 343 342 341 340 338 337 336 336 333 330 327 324 320 317 313 311 307 304 302 300 298
294 298 301 308 312 305 303 309 328 339 340 332 339 334 341 340 347 344 341 341 341 342 342 341 341 341 341 340 339 338 337 335 332 329 327 324 321 318 315 312 308 306 304 302
279 292 292 301 309 301 295 299 299 310 311 300 302 317 331 337 339 337 336 337 339 340 340 340 341 341 341 341 340 338 337 335 333 331 329 327 325 322 320 317 314 311 309 306
263 276 290 304 307 305 288 277 290 319 319 328 311 308 326 335 335 333 334 336 337 338 339 340 340 341 340 340 339 337 336 336 335 333 331 330 328 325 324 322 319 316 313 310
259 258 265 284 295 284 285 283 264 256 253 301 319 305 312 321 326 328 330 334 336 337 338 340 341 341 341 340 339 339 338 338 337 336 334 332 330 328 326 324 322 318 316 314
256 250 254 259 270 273 272 278 281 277 267 267 293 292 304 311 317 321 325 330 332 334 337 339 340 341 341 341 341 341 341 340 339 338 336 334 333 331 329 326 324 321 319 317
251 247 244 256 259 269 277 281 283 284 279 270 281 290 297 306 314 318 321 326 330 333 335 337 339 340 341 341 342 342 342 342 342 340 338 336 335 334 332 329 327 324 321 320
254 247 246 261 276 287 285 273 279 279 272 272 276 288 298 310 314 317 320 324 328 331 333 336 339 340 341 342 342 342 343 343 343 342 342 340 338 336 333 331 329 327 325 323
255 248 250 260 279 296 292 281 283 284 272 275 281 288 296 306 308 313 317 321 325 329 331 334 339 341 342 342 343 343 343 344 343 343 343 342 340 338 336 334 332 330 328 326
258 255 251 249 258 272 278 281 274 275 274 277 282 286 292 298 303 309 314 319 323 327 330 332 337 340 342 343 343 344 344 344 344 344 343 343 343 341 340 338 335 333 331 329
261 258 251 243 244 259 264 267 269 270 275 276 273 277 288 294 298 305 310 316 322 325 328 331 334 338 340 342 343 344 344 344 343 343 343 343 343 343 342 341 339 337 335 333
259 253 249 248 251 266 266 267 273 274 273 277 278 282 287 291 296 301 307 313 319 322 325 329 332 335 338 341 342 343 344 343 343 342 342 343 344 343 343 343 342 340 338 336
258 253 247 245 247 258 260 261 270 279 282 282 283 287 291 293 296 300 305 311 316 320 322 326 329 333 336 339 342 343 343 344 343 342 343 344 344 344 344 344 343 341 340 339
259 257 255 251 246 255 257 261 274 281 281 283 286 289 291 293 296 303 308 311 315 317 320 323 327 331 334 336 339 341 342 343 343 343 343 344 344 344 343 343 342 341 341 340
258 262 260 255 249 258 261 267 276 276 276 284 286 288 292 294 298 304 308 311 313 315 317 321 325 328 330 333 336 339 340 341 342 343 343 343 343 342 342 342 341 341 340 340
263 263 261 254 244 248 258 261 263 266 274 279 284 288 290 293 296 299 303 307 309 312 314 318 322 325 328 330 333 335 337 338 340 341 341 342 342 342 342 342 341 341 341 341
257 258 257 251 247 247 252 259 265 272 277 280 283 286 289 291 294 297 300 303 306 309 313 316 318 322 324 326 329 331 333 335 336 338 339 340 341 342 342 342 341 341 341 341
246 248 252 258 255 262 268 271 275 280 283 281 282 284 287 289 293 296 299 302 304 306 311 314 316 317 320 323 325 327 330 332 334 335 336 338 339 340 341 341 341 341 341 342
252 255 256 260 263 264 265 269 275 279 279 278 280 283 286 289 292 294 297 299 301 304 308 312 313 314 316 319 322 323 325 327 329 331 333 335 337 338 339 340 341 341 341 342
253 255 258 259 263 265 265 271 274 277 280 281 280 282 285 288 290 293 295 297 299 302 306 308 311 314 315 317 318 320 321 322 324 326 328 331 334 335 336 337 338 340 340 341